www.pogodaiklimat.ru

Погода и климат >> Архив погоды >> Кувейт >> Kuwait City


ПОГОДА в Kuwait City

  • Прогноз погоды в Kuwait City
  • Монитор погоды в Kuwait City
  • Климат города

АРХИВ ПОГОДЫ в Kuwait City

Время (UTC), дата Ветер
(напр.,м/с)
 
Видим.   Явления Облачность Т
(С)
Тd
(С)
f
(%)
Тe
(С)
Тes
(С)
Комфортность P
(гПа)
Po
(гПа)
Тmin
(С)
Tmax
(С)
R
(мм)
R24
(мм)
S
(см)
21 7.08 С 3-11
{11}
н/о н/о +36.4 +10.4 21 +35 +35 очень
жарко
997.1 997.0 +35.5 +45.5
00 8.08 С 1-4
{12}
н/о н/о +35.0 +9.9 22 +34 +34 очень
жарко
996.9 997.0
03 8.08 З 2-7
{8}
н/о н/о +34.0 +11.0 25 +34 +34 очень
жарко
997.0 997.0
06 8.08 СЗ 2-8
{11}
н/о н/о +38.2 +10.6 19 +37 +37 очень
жарко
998.2 998.0
09 8.08 СВ 3-6
{11}
н/о н/о +41.8 +9.0 14 +40 +40 очень
жарко
997.3 997.0
12 8.08 С 2-6
{11}
н/о н/о +43.9 +8.9 13 +42 +42 опасность
перегрева
995.8 996.0
15 8.08 С 3-6
{7}
н/о н/о +42.3 +9.6 14 +40 +40 очень
жарко
995.7 996.0
18 8.08 СЗ 2-4
{8}
н/о н/о +39.3 +9.8 17 +38 +38 очень
жарко
997.3 997.0
21 8.08 СЗ 3-8
{8}
н/о н/о +36.8 +12.6 23 +37 +37 очень
жарко
997.4 997.0 +33.7 +45.6
00 9.08 С 1-4
{10}
н/о н/о +35.1 +10.9 23 +34 +34 очень
жарко
997.3 997.0
03 9.08 СЗ 3-8
{9}
н/о н/о +34.7 +10.2 22 +34 +34 очень
жарко
999.0 999.0
06 9.08 ЮЗ 1-4
{9}
н/о н/о +38.8 +8.9 16 +37 +37 очень
жарко
1000.6 1001.0
09 9.08 СЗ 3-8
{8}
н/о н/о +43.4 +7.8 12 +41 +41 опасность
перегрева
999.4 999.0
12 9.08 С 2-5
{9}
н/о н/о +44.9 +8.8 12 +43 +43 опасность
перегрева
998.1 998.0
15 9.08 С 2-7
{9}
н/о н/о +43.1 +8.3 13 +41 +41 опасность
перегрева
998.1 998.0
18 9.08 СЗ 3-8
{9}
н/о н/о +40.8 +9.1 15 +39 +39 очень
жарко
1000.3 1000.0
21 9.08 СЗ 3-6
{8}
н/о н/о +37.6 +8.8 17 +36 +36 очень
жарко
1000.9 1001.0 +34.6 +46.0
00 10.08 СЗ 3-6
{8}
н/о н/о +36.5 +8.0 18 +35 +35 очень
жарко
1001.0 1001.0
03 10.08 СЗ 2-6
{9}
н/о н/о +35.5 +7.1 17 +33 +33 жарко 1002.2 1002.0
06 10.08 СЗ 2-4
{9}
н/о н/о +38.9 +7.6 15 +37 +37 очень
жарко
1003.4 1003.0
09 10.08 СВ 3-6
{7}
н/о н/о +43.9 +10.8 14 +43 +43 опасность
перегрева
1002.4 1002.0
12 10.08 С 2-5
{7}
н/о н/о +45.1 +7.7 11 +43 +43 опасность
перегрева
1000.6 1001.0
15 10.08 С 1-4
{7}
н/о н/о +42.1 +8.2 13 +40 +40 очень
жарко
1000.3 1000.0
18 10.08 СЗ 2-4
{7}
н/о н/о +39.6 +7.5 14 +37 +37 очень
жарко
1001.8 1002.0
21 10.08 СВ 1-4
{6}
н/о н/о +37.7 +5.8 14 +35 +35 очень
жарко
1002.1 1002.0 +34.9 +46.0
00 11.08 СЗ 2-5
{7}
н/о н/о +36.4 +6.6 16 +34 +34 очень
жарко
1001.5 1002.0
03 11.08 С 2-6
{8}
н/о н/о +35.6 +6.4 17 +33 +33 жарко 1002.4 1002.0
06 11.08 СЗ 2-5
{8}
н/о н/о +39.5 +5.1 12 +37 +37 очень
жарко
1003.0 1003.0
09 11.08 СЗ 2-6
{8}
н/о н/о +43.6 +7.6 12 +41 +41 опасность
перегрева
1001.8 1002.0
12 11.08 С 2-7
{9}
н/о н/о +45.7 +7.9 11 +44 +44 опасность
перегрева
999.6 1000.0
15 11.08 С 2-7
{9}
н/о н/о +42.5 +8.5 13 +40 +40 очень
жарко
999.4 999.0
18 11.08 СЗ 3-8
{9}
н/о н/о +40.7 +7.1 13 +38 +38 очень
жарко
1000.8 1001.0
21 11.08 Ю 2-6
{7}
н/о н/о +37.9 +5.6 14 +35 +35 очень
жарко
1001.7 1002.0 +35.1 +45.9
00 12.08 СЗ 3-7
{8}
н/о н/о +36.1 +6.8 17 +34 +34 очень
жарко
1000.8 1001.0
03 12.08 СЗ 3-7
{10}
н/о н/о +35.1 +6.3 17 +33 +33 жарко 1001.1 1001.0
06 12.08 СЗ 2-6
{10}
н/о н/о +39.8 +6.3 13 +37 +37 очень
жарко
1001.7 1002.0
09 12.08 СВ 2-6
{8}
н/о н/о +43.9 +8.6 12 +42 +42 опасность
перегрева
1000.4 1000.0
12 12.08 СЗ 3-7
{9}
н/о н/о +44.7 +6.6 10 +42 +42 опасность
перегрева
998.2 998.0
15 12.08 СЗ 3-7
{10}
н/о н/о +42.3 +7.9 13 +40 +40 очень
жарко
997.1 997.0
18 12.08 В 3-10
{10}
н/о н/о +40.4 +6.5 13 +38 +38 очень
жарко
998.4 998.0
21 12.08 З 1-4
{9}
н/о н/о +37.0 +10.7 20 +36 +36 очень
жарко
997.5 998.0 +34.8 +45.8
00 13.08 СЗ 2-7
{9}
н/о н/о +35.6 +9.9 21 +34 +34 очень
жарко
997.3 997.0
03 13.08 В 3-9
{9}
н/о н/о +34.8 +9.3 21 +33 +33 жарко 997.6 998.0
06 13.08 С 3-10
{10}
н/о н/о +37.5 +10.4 20 +36 +36 очень
жарко
998.4 998.0
09 13.08 С 3-8
{11}
н/о н/о +42.3 +7.4 12 +40 +40 очень
жарко
996.6 997.0
12 13.08 СВ 3-10
{11}
н/о н/о +42.9 +5.2 10 +40 +40 очень
жарко
995.4 995.0
15 13.08 СЗ 4-14
{14}
н/о н/о +40.4 +8.5 15 +38 +38 очень
жарко
995.3 995.0
18 13.08 СЗ 2-8
{14}
н/о н/о +38.2 +9.2 17 +36 +36 очень
жарко
996.4 996.0
21 13.08 С 2-5
{8}
н/о н/о +36.3 +7.9 18 +34 +34 очень
жарко
996.8 997.0 +34.6 +43.4
00 14.08 СЗ 2-6
{8}
н/о н/о +34.0 +7.5 19 +32 +32 жарко 996.9 997.0
03 14.08 З 2-6
{10}
н/о н/о +33.6 +6.3 18 +31 +31 жарко 997.9 998.0
06 14.08 ЮЗ 3-8
{10}
н/о н/о +37.9 +6.5 15 +35 +35 очень
жарко
998.9 999.0
09 14.08 З 2-5
{8}
н/о н/о +42.4 +7.6 12 +40 +40 очень
жарко
998.1 998.0

 

Местоположение метеостанции Kuwait City (Кувейт): широта 29.33 долгота 48.05 высота над уровнем моря 11 м.

В архиве по умолчанию представлена погода в Kuwait City за последнюю неделю. Архивные данные за месяц целиком и за предыдущие месяцы, начиная с января 2011 года, Вы можете получить, выбрав интересующий диапазон дат из раскрывающегося списка и нажав кнопку "Ввод!".


*Определитесь, кто Вы:
робот инопланетянин человек

Внимание! Время в таблицах - всемирное. Для получения местного времени необходимо прибавить поправку, которая в Kuwait City равна 3 ч.

Смотрите также архив погоды в соседних городах и на ближайших метеорологических станциях:

Погода в Al-Shuaiba (Кувейт) (5 км)
Погода в Experimental Farm (Кувейт) (12 км)
Погода в Kuwait (Кувейт) (14 км)
Погода в Failaka Island (Кувейт) (27 км)
Погода в Sulaibiya (Кувейт) (33 км)
Погода в Jahra (Кувейт) (37 км)
Погода в Sabriyah (Кувейт) (51 км)
Погода в Jal Aliyah (Кувейт) (55 км)
Погода в Juluiah Port (Кувейт) (56 км)
Погода в Minagish (Кувейт) (58 км)

Пояснения к столбцам:

Ветер - указаны скорость ветра в м/с - средняя за 10 мин, порывы в срок и между сроками (в фигурных скобках) и направление, откуда дует ветер: С - северный, СВ - северо-восточный, В - восточный, ЮВ - юго-восточный, Ю - южный, ЮЗ - юго-западный, З - западный, СЗ - северо-западный.
Видимость - горизонтальная дальность видимости в метрах или километрах. При видимости от 1 до 10 км при отсутствии осадков обычно наблюдается дымка, при ухудшении видимости до 1 км и менее - туман. В сухую погоду видимость может ухудшаться дымом, пылью или мглою.
Явления - указаны атмосферные явления, наблюдавшиеся в срок или в последний час перед сроком; фигурными скобками обозначены явления, наблюдавшиеся между сроками (за 1-3 часа до срока); квадратными скобками обозначены град или гололедные отложения с указанием их диаметра в мм.
Облачность - указаны через наклонную черту общая и нижняя облачность в баллах и высота нижней границы облаков в метрах; квадратными скобками обозначены формы облаков: Ci - перистые, Cs - перисто-слоистые, Cc - перисто-кучевые, Ac - высококучевые, As - высокослоистые, Sc - слоисто-кучевые, Ns - слоисто-дождевые, Cu - кучевые, Cb - кучево-дождевые. Подробнее классификацию облаков см. в Атласе облаков (PDF).
T - Температура воздуха - температура, измеренная на высоте 2 м над землей.
Td - Температура точки росы - температура, при понижении до которой содержащийся в воздухе водяной пар достигнет насыщения.
f - Относительная влажность воздуха - влажноcть воздуха, измеренная на высоте 2 м над землей.
Te - Эффективная температура - температура, которую ощущает одетый по сезону человек в тени. Характеристика душности погоды. При расчете учитывается влияние влажности воздуха и скорости ветра на теплоощущения человека.
Tes - Эффективная температура на солнце - температура, которую ощущает человек, с поправкой на солнечный нагрев. Характеристика знойности погоды. Зависит от высоты солнца над горизонтом, облачности и скорости ветра. Ночью, в пасмурную погоду, а также при ветре 12 м/с и более поправка равна нулю.
P - Атмосферное давление - приведенное к уровню моря атмосферное давление.
Po - Атмосферное давление - измеренное на уровне метеостанции атмосферное давление.
Tmin - Минимальная температура - минимум температуры воздуха на высоте 2 м над землей.
Tmax - Максимальная температура - максимум температуры воздуха на высоте 2 м над землей.
R - Количество осадков - Количество выпавших осадков за период времени, мм. При наведении курсора мыши на число - период времени, за который выпало указанное количество осадков.
R24 - Количество осадков - Количество выпавших осадков за 24 часа, мм.
S - Снежный покров - Высота снежного покрова, см. При наведении курсора мыши на число - состояние снежного покрова и степень покрытия местности в баллах.